GW5701 Weather Reports


time (UTC)temp
F
wind
direction
speed
knots
gust
knots
rain 1hr
in
rain 24hr
in
rain mn
in
humidity
%
barometer
mb
20260503230048 64 356 1.7 3.5 0.00 0.00 0.00 23 1014.1
20260503225047 65 314 0.9 3.5 0.00 0.00 0.00 21 1014.1
20260503224047 63 308 1.7 6.1 0.00 0.00 0.00 23 1014.1
20260503223049 65 293 1.7 7.0 0.00 0.00 0.00 23 1014.0
20260503222047 67 201 2.6 6.1 0.00 0.00 0.00 20 1014.0
20260503221047 65 197 1.7 6.1 0.00 0.00 0.00 23 1014.0
20260503220047 66 197 1.7 5.2 0.00 0.00 0.00 20 1014.1
20260503215048 67 306 1.7 3.5 0.00 0.00 0.00 22 1014.1
20260503214048 64 345 2.6 6.1 0.00 0.00 0.00 22 1014.2
20260503213047 63 314 3.5 7.8 0.00 0.00 0.00 23 1014.1
20260503212047 66 196 3.5 8.7 0.00 0.00 0.00 21 1014.2
20260503211047 65 235 2.6 8.7 0.00 0.00 0.00 22 1014.2
20260503210047 64 316 3.5 8.7 0.00 0.00 0.00 23 1014.3
20260503205048 64 284 1.7 7.0 0.00 0.00 0.00 24 1014.4
20260503204047 62 300 3.5 7.0 0.00 0.00 0.00 22 1014.5
20260503203047 65 18 0.9 7.8 0.00 0.00 0.00 22 1014.5
20260503202047 63 268 3.5 6.1 0.00 0.00 0.00 22 1014.7
20260503201050 64 194 4.3 7.8 0.00 0.00 0.00 23 1014.8
20260503200047 64 278 3.5 5.2 0.00 0.00 0.00 26 1014.9
20260503195047 61 52 3.5 8.7 0.00 0.00 0.00 25 1015.1
20260503194048 61 286 3.5 7.8 0.00 0.00 0.00 24 1015.3
20260503193047 61 303 4.3 6.1 0.00 0.00 0.00 24 1015.3
20260503192047 61 288 1.7 7.8 0.00 0.00 0.00 26 1015.2
20260503191048 62 227 2.6 12.2 0.00 0.00 0.00 25 1015.6
20260503190048 60 290 3.5 9.6 0.00 0.00 0.00 25 1015.7
20260503185047 60 299 3.5 7.8 0.00 0.00 0.00 30 1015.9
20260503184046 60 287 3.5 7.8 0.00 0.00 0.00 30 1016.1
20260503183048 60 195 2.6 8.7 0.00 0.00 0.00 28 1016.1
20260503182047 58 299 4.3 9.6 0.00 0.00 0.00 29 1016.3
20260503181049 0 0.0 0.0 0.00 0.00 0.00 1016.3
20260503180048 0 0.0 0.0 0.00 0.00 0.00 1016.4
20260503175049 0 0.0 0.0 0.00 0.00 0.00 1016.3
20260503174049 0 0.0 0.0 0.00 0.00 0.00 1016.4
20260503173048 0 0.0 0.0 0.00 0.00 0.00 1016.5
20260503172047 0 0.0 0.0 0.00 0.00 0.00 1016.7
20260503171047 0 0.0 0.0 0.00 0.00 0.00 1016.8
20260503131048 46 306 1.7 5.2 0.00 0.00 0.00 45 1017.9
20260503081049 41 17 0.9 4.3 0.00 0.00 0.00 68 1015.2
20260503072048 42 344 1.7 3.5 0.00 0.00 0.00 67 1014.8
20260503071048 42 12 0.9 3.5 0.00 0.00 0.00 68 1014.7
20260503055047 42 324 1.7 3.5 0.00 0.00 0.00 70 1014.6
20260503054048 41 305 0.9 2.6 0.00 0.00 0.00 71 1014.7
20260503053047 41 300 0.9 3.5 0.00 0.00 0.00 71 1014.6
20260503052047 42 290 0.9 2.6 0.00 0.00 0.00 69 1014.5
20260503051050 41 180 0.0 1.7 0.00 0.00 0.00 70 1014.6
20260503050052 40 180 0.0 0.9 0.00 0.00 0.00 69 1014.6
20260503045047 41 305 0.9 1.7 0.00 0.00 0.00 68 1014.6
20260503044048 42 309 1.7 3.5 0.00 0.00 0.00 66 1014.7
20260503043047 42 11 1.7 3.5 0.00 0.00 0.00 64 1014.7
20260503042050 42 3 0.9 3.5 0.00 0.00 0.00 64 1014.7
20260503041047 43 23 1.7 6.1 0.00 0.00 0.00 62 1014.6
20260503040049 44 32 2.6 4.3 0.00 0.00 0.00 60 1014.7
20260503035048 44 30 2.6 6.1 0.00 0.00 0.00 59 1014.6
20260503034048 45 12 1.7 5.2 0.00 0.00 0.00 57 1014.6
20260503033047 46 17 2.6 6.1 0.00 0.00 0.00 55 1014.5
20260503032047 46 307 1.7 6.1 0.00 0.00 0.00 53 1014.4
20260503031047 47 351 0.9 3.5 0.00 0.00 0.00 49 1014.3
20260503030047 47 304 1.7 5.2 0.00 0.00 0.00 47 1014.4
20260503025047 48 301 2.6 5.2 0.00 0.00 0.00 46 1014.3
20260503024047 48 301 1.7 3.5 0.00 0.00 0.00 45 1014.3
20260503023048 48 326 0.9 5.2 0.00 0.00 0.00 44 1014.3
20260503022047 48 305 0.0 1.7 0.00 0.00 0.00 45 1014.2
20260503021049 49 301 1.7 4.3 0.00 0.00 0.00 42 1014.2
20260503020050 49 312 3.5 7.8 0.00 0.00 0.00 41 1014.1
20260503015049 49 306 0.9 2.6 0.00 0.00 0.00 43 1014.2
20260503014048 49 297 0.9 3.5 0.00 0.00 0.00 41 1014.1
20260503013051 50 307 1.7 8.7 0.00 0.00 0.00 40 1014.1
20260503012048 50 297 3.5 6.1 0.00 0.00 0.00 39 1014.0
20260503011048 50 297 1.7 6.1 0.00 0.00 0.00 38 1013.8
20260503010047 50 296 2.6 5.2 0.00 0.00 0.00 39 1013.7
20260503005047 50 298 2.6 5.2 0.00 0.00 0.00 38 1013.6
20260503004047 50 289 0.9 4.3 0.00 0.00 0.00 39 1013.4
20260503003047 50 307 3.5 7.0 0.00 0.00 0.00 37 1013.2
20260503002050 51 293 2.6 8.7 0.00 0.00 0.00 37 1013.1
20260503001047 51 297 2.6 7.8 0.00 0.00 0.00 38 1012.9
20260503000047 51 285 1.7 6.1 0.00 0.00 0.00 37 1012.8
20260502235048 51 288 4.3 7.8 0.00 0.00 0.00 37 1012.6
20260502234048 51 311 1.7 4.3 0.00 0.00 0.00 39 1012.6
20260502233048 51 308 2.6 11.3 0.00 0.00 0.00 36 1012.4
20260502232048 52 288 4.3 9.6 0.00 0.00 0.00 38 1012.3
20260502231050 52 326 2.6 7.0 0.00 0.00 0.00 38 1012.2